Temperature
7 7 7 7 7 6 6 6 6 5 5 5 5 6 5 5 5 5 5 5 5 5 4 4 4 4 4 4 4 4 4 4 4 4 4 3 3 3
7 6 6 6 6 6 6 6 6 5 5 5 5 5 5 5 5 4 4 4 4 4 4 4 4 4 4 3 3 3 3 3 3 3 3 3 3 3
6 6 6 6 6 6 6 5 5 5 5 4 4 4 4 4 4 4 4 4 4 4 4 4 3 3 3 3 3 3 3 3 3 2 2 2 2 2
5 5 6 6 5 5 5 5 5 5 4 4 4 4 4 3 3 3 3 3 3 3 3 3 3 3 3 3 3 3 3 2 2 2 2 2 2 2
5 5 5 5 5 5 5 5 4 4 4 4 3 3 3 3 3 3 2 2 2 3 3 3 3 2 2 2 2 2 2 2 2 1 1 1 1 1
5 5 5 5 5 5 4 4 4 4 3 3 3 3 2 2 2 2 2 2 2 2 2 2 2 2 2 2 2 2 2 1 1 1 1 1 1 1
4 4 4 4 4 4 4 4 4 3 3 2 2 2 2 2 2 2 1 1 1 1 1 1 1 1 1 1 1 1 1 1 1 0 0 0 0 0
4 4 4 4 4 3 3 3 3 3 3 2 2 2 2 2 1 1 1 1 0 1 1 0 0 0 0 0 0 0 0 0 -0 -0 -0 -0 -0 -0
3 3 3 3 3 3 3 3 2 2 3 2 2 2 2 1 1 1 1 0 0 0 -0 -0 -0 -0 -0 -0 -0 -0 -0 -0 -1 -1 -1 -1 -1 -1
3 3 3 2 2 2 2 2 2 2 2 1 1 1 1 1 1 1 0 0 -0 -0 -1 -1 -1 -1 -1 -1 -1 -1 -1 -1 -1 -1 -1 -1 -1 -1
2 2 2 2 2 2 1 1 1 1 1 1 1 1 1 0 0 0 -0 -1 -1 -1 -1 -1 -1 -2 -2 -2 -2 -2 -2 -2 -2 -2 -2 -2 -2 -2
1 1 1 1 1 1 1 0 1 1 0 0 0 0 -0 -0 -0 -1 -1 -1 -2 -2 -2 -2 -2 -2 -3 -2 -2 -2 -2 -2 -2 -2 -2 -2 -2 -2
1 1 1 1 0 0 -0 -0 0 -0 -0 -0 -1 -1 -1 -1 -1 -1 -1 -2 -2 -2 -2 -2 -3 -3 -3 -3 -3 -3 -3 -3 -2 -2 -2 -2 -3 -3
0 0 0 0 -0 -0 -0 -1 -1 -1 -1 -1 -2 -2 -2 -2 -2 -2 -2 -2 -2 -2 -3 -3 -3 -3 -3 -4 -4 -3 -3 -3 -3 -3 -3 -3 -3 -3
-0 -0 -0 -1 -1 -1 -1 -1 -1 -2 -2 -2 -2 -2 -2 -2 -2 -2 -3 -3 -3 -3 -3 -3 -3 -3 -4 -4 -4 -4 -4 -4 -4 -3 -3 -3 -3 -3
-1 -1 -1 -1 -2 -2 -2 -2 -2 -2 -3 -3 -3 -3 -3 -3 -3 -3 -3 -3 -3 -3 -3 -4 -4 -4 -4 -4 -4 -4 -4 -4 -4 -4 -4 -4 -4 -4
-2 -2 -2 -2 -3 -3 -3 -3 -3 -3 -3 -3 -3 -4 -4 -4 -4 -4 -4 -4 -4 -4 -4 -4 -4 -4 -4 -4 -5 -5 -5 -5 -5 -4 -4 -4 -4 -4
-2 -3 -3 -3 -3 -3 -4 -4 -4 -4 -4 -4 -4 -4 -5 -5 -5 -5 -5 -5 -5 -5 -5 -5 -5 -5 -5 -5 -5 -5 -5 -5 -5 -5 -5 -5 -4 -4
-3 -3 -3 -4 -4 -4 -4 -4 -4 -4 -4 -4 -4 -5 -5 -5 -5 -5 -5 -5 -5 -5 -6 -5 -5 -5 -5 -5 -5 -5 -5 -5 -5 -5 -5 -5 -5 -5
-4 -4 -4 -4 -4 -4 -4 -4 -5 -5 -5 -5 -5 -5 -6 -6 -6 -6 -6 -6 -6 -6 -6 -6 -6 -6 -6 -6 -6 -6 -6 -6 -5 -5 -5 -5 -5 -5
-5 -5 -5 -5 -5 -5 -5 -5 -5 -5 -5 -5 -6 -6 -6 -6 -6 -6 -6 -6 -6 -6 -6 -6 -6 -6 -6 -6 -6 -6 -6 -6 -6 -6 -6 -6 -6 -5
-5 -5 -5 -5 -5 -5 -5 -5 -6 -6 -6 -6 -6 -6 -6 -6 -6 -6 -7 -7 -7 -7 -7 -6 -6 -6 -6 -6 -6 -6 -6 -6 -6 -6 -6 -6 -6 -6
-5 -5 -5 -6 -6 -6 -6 -6 -6 -6 -6 -6 -6 -6 -7 -7 -7 -7 -7 -7 -7 -7 -7 -7 -7 -7 -7 -7 -7 -7 -6 -6 -6 -6 -6 -6 -6 -6
Wind_Speed
9 9 8 7 6 6 6 6 6 6 6 5 3 4 4 5 5 6 6 6 8 8 8 8 8 8 8 8 9 9 10 10 11 11 12 13 13 13
8 10 9 7 6 6 6 6 6 7 6 4 4 3 4 4 5 6 6 7 8 8 8 8 8 8 8 8 9 10 10 10 11 12 12 12 13 13
8 9 10 9 7 6 6 6 6 6 7 5 3 3 4 4 4 5 5 6 6 7 8 8 8 8 8 8 8 9 10 10 10 11 12 12 13 13
9 9 10 8 9 7 6 7 6 6 6 6 4 3 4 5 4 5 4 4 5 6 7 8 8 8 8 8 7 8 9 9 10 11 11 11 12 13
9 10 9 9 10 8 8 7 6 5 5 5 4 3 3 3 3 4 4 4 4 5 6 6 7 8 8 8 7 8 8 9 9 10 10 11 12 13
8 8 9 9 9 9 8 7 6 5 5 4 4 3 2 2 3 3 3 3 4 4 4 5 6 6 7 8 8 7 7 8 9 9 10 10 11 12
7 7 7 7 8 8 7 7 6 5 5 5 4 4 3 2 3 3 4 4 4 3 3 3 4 4 5 5 6 7 7 7 8 9 10 10 11 12
6 6 6 6 6 8 8 8 7 7 7 6 5 5 5 4 3 3 3 3 4 2 3 4 3 4 4 4 5 7 7 8 8 9 9 10 11 11
6 5 4 5 5 6 7 7 8 8 8 7 7 6 5 5 4 4 4 4 5 3 3 4 3 4 4 5 6 7 8 8 8 9 10 10 11 12
5 5 5 5 5 4 5 5 5 5 5 5 6 5 4 4 5 5 4 3 3 2 3 4 4 4 4 5 5 6 7 7 8 9 10 10 11 12
3 4 4 4 5 5 4 4 4 2 2 3 2 2 2 3 2 2 2 2 3 3 2 3 3 4 4 4 4 6 7 7 8 9 10 10 11 11
2 2 4 4 4 5 4 4 4 3 3 3 2 2 2 2 3 3 3 3 3 3 2 2 3 3 3 3 4 5 5 6 8 9 9 10 10 8
2 2 2 4 4 5 3 3 3 3 3 3 2 2 1 0 1 1 2 3 3 3 2 2 3 3 3 3 4 4 5 5 6 7 8 9 10 8
2 1 2 4 4 4 3 4 5 4 3 2 2 1 1 0 1 1 2 2 2 3 3 3 3 3 3 4 4 4 5 5 5 5 7 9 9 9
1 2 3 4 4 3 4 5 4 3 2 2 1 0 0 0 1 1 1 1 2 2 2 3 3 3 3 4 3 4 4 5 5 5 6 6 6 6
2 4 5 5 4 4 4 3 2 2 2 1 1 1 1 1 0 1 1 1 1 2 2 2 3 3 3 3 3 4 4 3 4 5 6 6 6 6
4 3 3 2 2 2 2 2 2 2 1 1 1 1 1 1 1 1 1 1 1 1 2 2 2 2 3 3 3 4 4 4 5 5 6 6 6 5
5 3 2 2 2 2 2 2 1 1 1 1 1 1 0 0 1 1 1 1 1 1 1 2 2 2 2 2 3 4 4 4 5 5 5 6 6 5
3 3 2 2 1 2 1 1 1 1 1 1 0 0 0 0 0 1 1 1 1 1 2 2 2 2 3 3 2 2 4 4 5 5 5 5 6 7
2 2 1 1 1 1 1 1 1 1 1 0 0 0 0 0 0 1 1 1 1 2 2 2 2 3 3 4 3 4 5 5 5 5 6 6 6 8
1 1 1 1 1 1 1 1 1 1 1 0 0 0 0 0 0 1 1 2 2 2 2 2 3 4 3 2 3 4 4 5 6 5 6 6 6 5
1 1 1 1 1 1 1 1 1 1 1 0 0 0 0 0 0 1 1 1 2 2 3 3 3 3 2 3 4 5 5 6 6 8 8 7 5 4
1 1 1 1 1 1 1 1 1 1 1 0 0 0 0 1 1 1 1 1 2 2 2 3 3 3 3 3 4 4 6 6 5 5 4 6 9 12
Wind_Direction
223 223 225 227 225 226 226 223 233 254 258 249 243 238 236 235 231 233 244 252 258 265 269 273 276 275 276 281 284 289 296 301 300 299 299 302 303 303
223 221 224 224 224 223 224 228 232 242 256 253 250 247 235 238 240 245 250 256 252 263 270 269 273 271 270 277 281 287 292 297 303 298 296 299 301 301
225 224 223 219 218 217 220 226 231 234 244 257 257 241 237 243 243 250 253 256 253 256 271 268 270 271 271 275 283 292 293 294 299 302 299 298 299 300
225 225 222 216 216 213 214 222 229 234 236 244 244 241 244 243 255 264 263 261 264 266 271 266 268 269 271 275 283 292 295 295 297 299 299 300 301 302
225 223 223 218 215 213 213 217 223 228 228 232 237 241 251 245 255 265 269 271 274 272 272 270 274 275 270 272 282 290 292 295 294 295 294 297 298 301
229 225 224 222 218 212 212 213 214 218 219 222 227 233 236 241 246 260 269 270 276 273 273 280 283 276 276 281 284 287 292 297 296 296 296 297 297 299
227 226 227 225 227 216 214 212 208 211 213 217 223 230 227 227 243 250 260 273 277 273 288 286 284 278 278 281 290 298 297 298 300 301 299 297 297 298
224 224 224 218 218 213 211 211 210 210 212 216 226 230 235 234 237 235 248 266 269 268 284 285 283 285 289 289 301 301 299 302 303 304 305 306 302 297
220 216 219 214 212 215 207 208 211 214 218 221 223 231 235 230 226 234 238 255 267 275 279 279 285 287 294 292 295 298 300 303 304 305 307 309 310 308
214 212 210 211 209 208 207 212 219 226 232 232 227 230 233 232 231 237 245 262 288 275 282 279 290 292 298 291 293 296 301 303 304 304 304 306 308 306
214 209 206 208 195 189 198 202 203 212 202 195 204 200 196 203 209 215 217 240 275 277 282 275 289 300 292 285 292 301 303 303 303 302 302 305 307 304
205 205 197 193 188 183 191 193 194 193 173 158 159 157 177 178 195 225 224 234 268 270 262 269 282 294 280 277 296 300 302 304 306 304 305 306 308 304
189 201 191 173 178 176 184 193 186 166 154 154 164 165 167 208 265 288 277 251 256 264 253 262 271 275 270 285 292 299 306 309 309 308 308 308 306 304
188 185 169 162 168 156 153 141 133 130 135 142 154 167 170 261 349 357 353 337 303 266 250 261 261 264 271 285 291 300 305 310 313 313 313 314 309 302
143 138 136 137 134 129 125 120 119 120 125 143 161 185 20 46 28 3 3 3 349 322 284 275 268 262 268 270 285 299 303 308 311 314 314 312 309 308
113 115 111 106 104 103 105 102 104 119 132 146 136 99 71 60 10 334 313 307 319 328 339 323 292 271 271 278 278 289 296 297 309 313 311 307 304 300
111 102 94 96 105 98 84 78 83 103 115 114 111 95 78 28 354 356 328 310 288 288 313 334 334 310 282 274 275 279 290 299 303 309 310 306 305 305
118 123 124 128 127 121 112 92 84 89 87 94 110 127 139 2 353 345 330 324 317 297 304 307 308 311 300 275 255 274 290 301 307 306 304 303 305 312
115 123 131 138 133 126 123 123 122 99 89 94 98 132 159 313 327 328 346 347 331 310 311 309 306 304 307 311 296 271 295 307 308 304 304 303 299 305
102 122 134 137 142 141 133 127 121 119 117 134 163 192 211 295 315 317 323 331 319 309 304 310 306 304 299 305 303 302 298 296 303 306 310 310 301 298
112 119 127 133 133 131 126 133 140 146 140 173 201 225 252 310 319 320 323 323 318 305 296 302 311 314 308 299 292 296 305 298 290 292 304 310 311 311
130 150 149 146 148 149 147 147 140 144 140 151 137 358 321 302 280 287 296 302 306 308 316 321 321 317 306 291 296 305 311 317 307 295 283 277 294 307
149 157 156 155 162 165 164 162 159 159 167 170 171 275 283 296 304 297 295 298 305 311 318 320 322 322 314 305 303 308 314 319 321 322 310 297 285 282
Height
1486 1488 1489 1490 1491 1492 1493 1494 1495 1494 1494 1493 1493 1493 1493 1493 1492 1492 1491 1490 1490 1489 1487 1486 1485 1484 1483 1482 1481 1480 1479 1477 1476 1475 1473 1472 1471 1469
1480 1482 1483 1484 1485 1486 1487 1488 1489 1490 1490 1489 1489 1489 1489 1488 1488 1487 1487 1486 1484 1483 1482 1481 1480 1479 1478 1477 1476 1475 1474 1472 1471 1470 1468 1467 1466 1464
1474 1475 1476 1478 1479 1480 1481 1482 1484 1484 1484 1484 1485 1484 1484 1484 1483 1483 1482 1481 1480 1478 1477 1476 1475 1474 1473 1472 1471 1470 1469 1467 1466 1465 1463 1462 1461 1459
1467 1468 1470 1472 1473 1475 1475 1476 1478 1479 1479 1479 1479 1479 1479 1479 1478 1478 1477 1476 1475 1474 1472 1471 1470 1469 1468 1467 1466 1464 1463 1462 1461 1459 1458 1457 1455 1454
1462 1463 1464 1466 1467 1468 1469 1471 1472 1473 1473 1474 1473 1474 1474 1474 1473 1473 1472 1471 1470 1469 1467 1466 1465 1464 1463 1462 1461 1459 1458 1457 1456 1454 1453 1451 1450 1449
1456 1457 1458 1459 1461 1463 1464 1465 1466 1467 1468 1468 1468 1469 1469 1468 1469 1468 1467 1467 1465 1464 1463 1461 1460 1459 1458 1457 1456 1454 1453 1451 1450 1449 1447 1446 1445 1443
1450 1451 1453 1454 1455 1457 1458 1459 1461 1461 1462 1463 1463 1464 1464 1463 1464 1463 1463 1462 1461 1460 1458 1457 1456 1454 1453 1452 1451 1449 1447 1446 1445 1444 1443 1441 1439 1438
1445 1446 1447 1449 1450 1451 1453 1454 1455 1456 1457 1458 1458 1458 1458 1459 1459 1459 1459 1458 1456 1456 1454 1453 1452 1450 1449 1448 1446 1444 1442 1441 1440 1439 1438 1436 1434 1433
1440 1441 1442 1443 1445 1446 1447 1449 1450 1451 1452 1453 1453 1453 1454 1454 1455 1455 1454 1453 1452 1451 1450 1448 1448 1447 1445 1444 1442 1440 1438 1436 1435 1435 1433 1431 1430 1428
1436 1436 1437 1438 1440 1441 1442 1443 1444 1446 1447 1448 1449 1449 1450 1450 1450 1450 1449 1449 1448 1448 1447 1445 1444 1443 1441 1439 1437 1436 1434 1432 1431 1430 1429 1427 1425 1423
1432 1432 1433 1434 1436 1437 1438 1438 1439 1440 1442 1443 1444 1445 1445 1446 1446 1446 1445 1444 1443 1443 1443 1442 1440 1438 1437 1435 1434 1432 1430 1428 1427 1426 1424 1422 1421 1419
1428 1429 1430 1431 1432 1433 1434 1435 1435 1436 1437 1438 1440 1440 1441 1441 1442 1442 1441 1440 1439 1439 1438 1438 1436 1435 1432 1431 1430 1428 1426 1424 1423 1422 1420 1418 1417 1415
1425 1426 1427 1428 1429 1430 1431 1432 1432 1433 1433 1434 1435 1436 1436 1437 1437 1437 1437 1437 1436 1435 1435 1434 1432 1432 1430 1427 1426 1424 1423 1421 1419 1418 1416 1414 1413 1411
1422 1424 1424 1426 1427 1427 1428 1428 1429 1429 1430 1431 1431 1431 1432 1432 1432 1432 1432 1432 1432 1431 1430 1430 1429 1428 1427 1425 1422 1420 1419 1418 1416 1415 1413 1411 1409 1408
1421 1422 1423 1424 1424 1425 1425 1425 1426 1426 1427 1428 1428 1428 1429 1428 1428 1428 1427 1427 1427 1427 1427 1427 1426 1425 1424 1422 1420 1418 1416 1415 1413 1412 1410 1408 1406 1404
1419 1420 1421 1422 1422 1423 1423 1423 1424 1424 1425 1426 1425 1426 1425 1425 1424 1424 1423 1423 1423 1422 1423 1423 1423 1423 1421 1419 1418 1416 1414 1413 1411 1410 1408 1406 1404 1402
1417 1417 1418 1420 1420 1420 1421 1421 1422 1422 1423 1423 1423 1422 1422 1422 1421 1421 1420 1420 1420 1419 1419 1420 1420 1419 1418 1417 1415 1414 1412 1411 1409 1407 1406 1403 1401 1399
1415 1416 1417 1418 1419 1419 1419 1419 1420 1420 1420 1420 1420 1420 1420 1420 1419 1418 1418 1418 1417 1417 1417 1417 1417 1416 1416 1415 1414 1412 1410 1409 1407 1405 1403 1401 1398 1397
1414 1414 1416 1416 1417 1417 1417 1418 1418 1418 1419 1419 1419 1419 1419 1418 1418 1417 1416 1416 1416 1416 1416 1416 1415 1414 1413 1412 1411 1410 1409 1406 1405 1403 1401 1398 1396 1394
1412 1413 1414 1415 1416 1416 1416 1416 1416 1417 1417 1417 1417 1417 1417 1417 1416 1416 1415 1415 1414 1414 1414 1414 1413 1413 1412 1411 1409 1407 1406 1404 1402 1400 1398 1396 1393 1391
1411 1412 1413 1413 1414 1414 1414 1415 1416 1416 1416 1416 1416 1416 1415 1415 1415 1414 1414 1414 1413 1413 1412 1412 1411 1411 1410 1409 1407 1405 1404 1402 1400 1398 1396 1393 1391 1388
1411 1411 1412 1412 1413 1413 1414 1414 1414 1414 1414 1414 1414 1414 1414 1414 1413 1413 1413 1412 1412 1412 1411 1410 1409 1408 1408 1407 1405 1403 1401 1400 1398 1396 1394 1392 1390 1387
1410 1411 1411 1411 1412 1412 1412 1413 1413 1413 1413 1413 1412 1412 1412 1412 1412 1411 1411 1411 1411 1410 1409 1408 1407 1407 1406 1405 1403 1401 1399 1397 1395 1394 1392 1390 1388 1386